Regional Weather Roundup
Issued by NWS

Home | Current Version | Previous Version | Graphics & Text | Print | Product List | Glossary On
Versions: 1 2 3 4 5 6 7 8 9 10 11 12 13 14 15 16 17 18 19 20 21 22 23 24 25 26 27 28 29 30 31 32 33 34 35 36 37 38 39 40 41 42 43 44 45 46 47 48 49 50
000
ASUS45 KTFX 191519
RWRMT
MONTANA HOURLY WEATHER ROUNDUP
NATIONAL WEATHER SERVICE GREAT FALLS MT
819 AM MST FRI DEC 19 2014

NOTE: "FAIR" INDICATES FEW OR NO CLOUDS BELOW 12000 FEET WITH NO
SIGNIFICANT WEATHER AND/OR OBSTRUCTIONS TO VISIBILITY.

* THESE STATIONS ARE NOT UNDER NWS QUALITY CONTROL. THEY DO NOT
   REPORT WEATHER SUCH AS PRECIPITATION OR FOG.

MTZ001>007-043-191600-
WEST OF THE DIVIDE
CITY           SKY/WX    TMP DP  RH WIND       PRES   REMARKS
KALISPELL      FOG       30  30 100 CALM      29.89F VSB 1 1/4
MISSOULA       CLOUDY    30  28  92 CALM      29.96F
BUTTE          CLOUDY    21  18  88 CALM      29.96F
MULLAN PASS    SNOW      32  28  85 N/A       29.84S VSB M1/4
* ANACONDA     PTSUNNY   36  25  64 SE11       N/A   WCI  28
* ESSEX        N/A       28  27  96 N/A        N/A
* EUREKA APT   PTCLDY    39  32  76 S15G20    29.88S WCI  31
* HAMILTON APT PTCLDY    30  27  89 S1        29.93F
* LIBBY APT    PTCLDY    32  32 100 CALM      29.91S VSB 3
* LINCOLN      N/A       27  25  92 N/A        N/A
* LOOKOUT PASS N/A       32  32 100 S3G9       N/A
* POLSON       N/A       33  30  89 S1         N/A
* RONAN APT    PTCLDY    32  30  92 N/A        N/A
* SEELEY LAKE  N/A       25  24  96 N/A        N/A
* THOMP F APT  PTCLDY    25  23  92 E5         N/A   WCI  19
$$

MTZ008-052>055-191600-
SOUTHWEST MONTANA
CITY           SKY/WX    TMP DP  RH WIND       PRES   REMARKS
BOZEMAN        PTSUNNY   21  19  92 CALM      29.98S
DILLON         CLOUDY    30  25  82 SW10      29.99F WCI  21
* W YELLOWSTON PTSUNNY   26  24  92 SW2G7      N/A
* THREE FORKS  PTSUNNY   32  32 100 N/A        N/A
* BOULDER HILL N/A       30  17  58 SW13       N/A   WCI  20
* MONIDA PASS  N/A       23  23 100 SE15       N/A   WCI  10
* RAYNOLDS PAS N/A       26  11  53 S12        N/A   WCI  15
* WHITEHALL    N/A       30  22  72 SW3G9      N/A
* WISE RIVER   N/A       24  21  88 SE2        N/A
$$

MTZ009>010-012-014-046-048-049-054-191600-
EAST SLOPES AND CENTRAL MONTANA
CITY           SKY/WX    TMP DP  RH WIND       PRES   REMARKS
CUT BANK       CLOUDY    28  21  75 SE8       29.81S WCI  20
GREAT FALLS    PTSUNNY   34  27  76 S10       29.86S WCI  26
HELENA         PTSUNNY   25  23  92 CALM      29.95F
MALMSTROM AFB  CLOUDY    34  27  76 SW15      29.88S WCI  24
* CONRAD       CLOUDY    21  18  88 CALM       N/A
* DEARBORN     N/A       41  24  51 S7G14      N/A
* EAST GLACIER N/A       36  28  73 W23G34     N/A   WCI  24
* MONARCH      N/A       31  17  56 S11G16     N/A   WCI  22
* PENDROY      N/A       31  22  69 SW1        N/A
* ROGERS PASS  N/A       31  23  72 SE9G15     N/A   WCI  23
* SWEET GRASS  N/A       25  22  88 S17        N/A   WCI  12
* WHITE SULPH  N/A       33  22  64 S16G21     N/A   WCI  23
$$

MTZ011-013-016-021-035-040-045-047-050-051-191600-
NORTH CENTRAL MONTANA
CITY           SKY/WX    TMP DP  RH WIND       PRES   REMARKS
HAVRE          SUNNY     16  12  84 CALM      29.88S
LEWISTOWN      PTCLDY    34  21  59 VRB3      29.89S
* N BAR RANCH  SUNNY     25  18  75 NW5       29.90S WCI  19
* CHINOOK      SUNNY      9   7  91 CALM      29.90F
* CHESTER      N/A       15  12  88 NE1        N/A
* DENTON       N/A       27  21  78 S9         N/A   WCI  18
* GEYSER       N/A       37  22  55 SW19       N/A   WCI  27
* JUDITH GAP   N/A       28  19  69 SW7        N/A   WCI  21
* LOMA         N/A       25  23  92 NE5        N/A   WCI  19
$$

MTZ017>020-022>027-061-062-191600-
NORTHEAST MONTANA
CITY           SKY/WX    TMP DP  RH WIND       PRES   REMARKS
GLASGOW        FOG       19  18  96 CALM      29.91R VSB 3/4
GLENDIVE       PTCLDY    25  21  85 S3        29.93F
JORDAN         SUNNY     19  18  96 NW5       29.91S WCI  12
SIDNEY         SUNNY     21  19  92 CALM      29.95S
WOLF POINT     PTCLDY    16  10  77 CALM      29.93S
* BEAVER HILL  N/A       28  23  81 SW9        N/A   WCI  19
* CIRCLE       N/A       26  23  88 N/A        N/A
* LINDSAY DVD  N/A       34  25  70 NW6        N/A   WCI  29
* NAVAJO       N/A       20  19  96 NW4        N/A
* PLENTYWOOD A SUNNY     12  10  92 CALM      29.91R VSB M1/4
* POPLAR APT   SUNNY     18  16  92 CALM      29.93S VSB 1 1/2
* SACO         N/A       14  12  92 NE2        N/A
$$

MTZ028>042-056>058-191600-
SOUTHCENTRAL AND SOUTHEAST MONTANA
CITY           SKY/WX    TMP DP  RH WIND       PRES   REMARKS
BAKER          PTCLDY    25  21  85 CALM      29.94S
BILLINGS       PTCLDY    28  18  66 SW16      29.93F WCI  16
LIVINGSTON     CLOUDY    39  21  48 W17G30    29.93S WCI  30
MILES CITY     CLOUDY    25  19  78 SE8       29.95S WCI  16
* FORSYTH APT  PTCLDY    27  21  78 CALM      29.95R
* LAUREL APT   PTCLDY    28  10  47 S8         N/A   WCI  20
* ROUNDUP APT  SUNNY     30  19  64 S8         N/A   WCI  22
* ALZADA       N/A       21  17  84 N/A        N/A
* HYSHAM       N/A       32  16  52 W5         N/A   WCI  27
* LAME DEER    N/A       34  16  48 W6         N/A   WCI  29
* REED POINT   N/A       17  16  96 E3         N/A
* ROSCOE HILL  N/A       37  10  33 S9G15      N/A   WCI  30
$$

REGIONAL REPORTS...DAKOTAS
CITY           SKY/WX    TMP DP  RH WIND       PRES   REMARKS
WILLISTON      FOG       19  19 100 CALM      29.94R VSB M1/4
DICKINSON      PTSUNNY   30  23  75 W8        29.90S WCI  22
BEACH          SUNNY     27  25  92 SW9       29.93R WCI  18
CROSBY         FOG       21  21 100 SW6       29.94R VSB 3/4  WCI  13
TIOGA          FOG       23  23 100 W6        29.94R VSB M1/4 WCI  16
WATFORD CITY   SUNNY     19  19 100 SW5       29.91S WCI  12
BISMARCK       PTSUNNY   21  21 100 SE5       29.96S WCI  14
GRAND FORKS    FOG       25  23  92 S9        30.07S VSB 2    WCI  16
FARGO          FOG       27  23  85 S14       30.08F VSB 3    WCI  16
BUFFALO SD     PTSUNNY   28  19  69 W7        29.88S WCI  21
RAPID CITY     PTCLDY    23  16  74 CALM      29.97F
$$

REGIONAL REPORTS...WYOMING/IDAHO/WASHINGTON
CITY           SKY/WX    TMP DP  RH WIND       PRES   REMARKS
GILLETTE       PTCLDY    27  12  53 CALM      29.96S
SHERIDAN       PTCLDY    34  16  48 CALM      29.95S
CODY           PTCLDY    37  21  52 W10G17    29.95F WCI  30
YELLOWSTONE LA CLOUDY    23  21  92 CALM      30.07R
SALMON         CLOUDY    27  25  92 CALM      30.05F
MULLAN PASS    SNOW      32  28  85 N/A       29.84S VSB M1/4
SAND POINT     RAIN      34  34 100 CALM      29.90F VSB 2 1/2
SPOKANE        LGT RAIN  39  37  93 SE10      29.85F WCI  32
$$

REGIONAL REPORTS...ALBERTA
CITY           SKY/WX    TMP DP  RH WIND       PRES   REMARKS
CALGARY        PTSUNNY   25  18  75 S7        29.67F WCI  17
LETHBRIDGE     PTSUNNY   30  27  89 S18       29.75F WCI  18
MEDICINE HAT   PTCLDY    19  18  96 SE3       29.81F
EDMONTON       PTSUNNY   16  12  84 SE10      29.70S WCI   4
WATERTON GATE  N/A       37  28  70 SW16G24    N/A   WCI  28
CARDSTON       N/A       39  34  82 SW9        N/A   WCI  33
MILK RIVER     N/A       21  19  92 SE7        N/A   WCI  12
$$

REGIONAL REPORTS...SASKATCHEWAN
CITY           SKY/WX    TMP DP  RH WIND       PRES   REMARKS
SWIFT CURRENT  SUNNY     19  18  96 SW9       29.85S WCI   8
MOOSE JAW      LGT SNOW  18  16  92 N5        29.94R VSB 1/2  WCI  11
REGINA         FOG       18  18 100 SW3       29.92R VSB 1
VAL MARIE      N/A        7   5  91 CALM       N/A
ASSINIBOIA     N/A       12   9  88 SW5        N/A   WCI   4
CORONACH       N/A        7   5  91 W1         N/A

$$




USA.gov is the U.S. government's official web portal to all federal, state and local government web resources and services.